User: anonymous   Login
Location: Unspecified
(0.0000°N, 0.0000°E)
Time: 03:21:43
(UTC+02:00)
Language:

ISS - Orbit

View from above orbital plane
View from above orbital plane
View from above satellite
View from above satellite

Ground track
Ground track

The orbit data is extracted from the following two-line orbital elements,

1 25544U 98067A   17145.52800275  .00016717  00000-0  10270-3 0  9015
2 25544  51.6372 151.2656 0005033 192.5139 167.5889 15.53913304 18224
Epoch (UTC): 25 May 2017 12:40:19
Eccentricity: 0.0005033
inclination: 51.6372°
perigee height: 402 km
apogee height: 409 km
right ascension of ascending node: 151.2656°
argument of perigee: 192.5139°
revolutions per day: 15.53913304
mean anomaly at epoch: 167.5889°
orbit number at epoch: 1822

The dashed part of the orbit path shows where the satellite is in the earth's shadow,  

DLR